Back to catalog

STARLINK-4128

AliveCommunicationsVLEO
NORAD 53249·PAYLOAD·🇺🇸 United States

Launched Jul 24, 2022 from Cape Canaveral Space Force Station

Loading…

Next Passes (next 24 hours)

TLE

FreshSource: CelesTrak SupGP

Epoch: Sep 14, 2026, 21:06 UTC

1 53249C 22086H   26257.87965278  .00042607  00000+0  13705-2 0  2578
2 53249  53.1580  51.2407 0001255  78.5597  28.8684 15.31673058    16

Track STARLINK-4128 in real time with AllMySat

Download on the App Store